EW4725 Weather Reports


time (UTC)temp
C
wind
direction
speed
KPH
gust
KPH
rain 1hr
cm
rain 24hr
cm
rain mn
cm
humidity
%
barometer
mb
20220629025716 22 305 4.8 8.0 0.00 0.00 0.00 71 1014.0
20220629025216 22 305 4.8 8.0 0.00 0.00 0.00 70 1013.9
20220629024716 22 305 4.8 6.4 0.00 0.00 0.00 69 1013.8
20220629024215 22 260 6.4 9.7 0.00 0.00 0.00 68 1013.8
20220629023716 23 305 6.4 9.7 0.00 0.00 0.00 68 1013.7
20220629023216 23 283 4.8 6.4 0.00 0.00 0.00 68 1013.6
20220629022716 23 260 9.7 11.3 0.00 0.00 0.00 66 1013.7
20220629022216 23 305 4.8 8.0 0.00 0.00 0.00 66 1013.6
20220629021716 23 260 6.4 9.7 0.00 0.00 0.00 65 1013.6
20220629021216 23 283 4.8 8.0 0.00 0.00 0.00 65 1013.5
20220629020716 24 260 4.8 8.0 0.00 0.00 0.00 64 1013.5
20220629020215 24 260 4.8 8.0 0.00 0.00 0.00 63 1013.5
20220629015715 24 283 4.8 6.4 0.00 0.00 0.00 63 1013.5
20220629015215 25 283 6.4 11.3 0.00 0.00 0.00 62 1013.5
20220629014715 25 283 4.8 6.4 0.00 0.00 0.00 62 1013.4
20220629014216 25 283 8.0 12.9 0.00 0.00 0.00 61 1013.5
20220629013716 25 260 3.2 6.4 0.00 0.00 0.00 60 1013.4
20220629013215 25 283 8.0 11.3 0.00 0.00 0.00 59 1013.3
20220629012716 25 283 4.8 8.0 0.00 0.00 0.00 59 1013.3
20220629012215 25 283 8.0 12.9 0.00 0.00 0.00 59 1013.2
20220629011715 26 260 11.3 12.9 0.00 0.00 0.00 58 1013.2
20220629011216 26 283 6.4 9.7 0.00 0.00 0.00 58 1013.2
20220629010715 26 283 3.2 6.4 0.00 0.00 0.00 58 1013.2
20220629010216 26 305 9.7 12.9 0.00 0.00 0.00 57 1013.2
20220629005715 26 283 8.0 11.3 0.00 0.00 0.00 57 1013.2
20220629005216 26 283 6.4 9.7 0.00 0.00 0.00 56 1013.2
20220629004715 27 260 8.0 11.3 0.00 0.00 0.00 56 1013.3
20220629004215 27 283 8.0 12.9 0.00 0.00 0.00 55 1013.3
20220629003715 27 260 8.0 12.9 0.00 0.00 0.00 54 1013.3
20220629003215 27 283 6.4 11.3 0.00 0.00 0.00 54 1013.3
20220629002715 28 260 8.0 9.7 0.00 0.00 0.00 52 1013.5
20220629002215 28 283 4.8 6.4 0.00 0.00 0.00 52 1013.5
20220629001715 28 305 6.4 9.7 0.00 0.00 0.00 53 1013.5
20220629001216 28 260 9.7 12.9 0.00 0.00 0.00 52 1013.6
20220629000715 28 305 3.2 8.0 0.00 0.00 0.00 51 1013.6
20220629000215 28 305 3.2 8.0 0.00 0.00 0.00 52 1013.7
20220628235715 28 0.0 0.0 0.00 0.00 0.00 50 1013.7
20220628235215 29 0.0 1.6 0.00 0.00 0.00 50 1013.7
20220628234716 29 305 4.8 11.3 0.00 0.00 0.00 48 1013.6
20220628234215 30 0.0 4.8 0.00 0.00 0.00 48 1013.7
20220628233715 30 260 9.7 11.3 0.00 0.00 0.00 48 1013.7
20220628233215 31 260 8.0 12.9 0.00 0.00 0.00 45 1013.8
20220628232715 31 283 3.2 9.7 0.00 0.00 0.00 42 1013.9
20220628232215 31 260 4.8 6.4 0.00 0.00 0.00 43 1013.8
20220628231715 31 238 4.8 8.0 0.00 0.00 0.00 42 1013.9
20220628231215 31 170 1.6 3.2 0.00 0.00 0.00 28 1013.9
20220628230715 31 148 6.4 14.5 0.00 0.00 0.00 28 1014.0
20220628230215 31 170 9.7 14.5 0.00 0.00 0.00 28 1014.0
20220628225715 31 125 8.0 12.9 0.00 0.00 0.00 28 1014.0
20220628225215 32 148 6.4 16.1 0.00 0.00 0.00 28 1014.0
20220628224715 32 148 9.7 12.9 0.00 0.00 0.00 28 1014.0
20220628224215 32 170 4.8 8.0 0.00 0.00 0.00 29 1014.0
20220628223715 32 125 1.6 3.2 0.00 0.00 0.00 30 1014.1
20220628223215 31 148 4.8 8.0 0.00 0.00 0.00 30 1014.2
20220628222715 32 148 8.0 11.3 0.00 0.00 0.00 30 1014.2
20220628222215 32 125 3.2 6.4 0.00 0.00 0.00 31 1014.2
20220628221715 32 170 4.8 6.4 0.00 0.00 0.00 31 1014.3
20220628221215 31 148 6.4 11.3 0.00 0.00 0.00 31 1014.2
20220628220715 32 125 6.4 9.7 0.00 0.00 0.00 31 1014.3
20220628220215 32 148 6.4 9.7 0.00 0.00 0.00 31 1014.3
20220628215715 32 148 6.4 9.7 0.00 0.00 0.00 31 1014.3
20220628215215 32 125 4.8 14.5 0.00 0.00 0.00 31 1014.3
20220628214715 31 238 4.8 6.4 0.00 0.00 0.00 33 1014.4
20220628214215 31 148 6.4 11.3 0.00 0.00 0.00 34 1014.4
20220628213715 31 148 9.7 14.5 0.00 0.00 0.00 34 1014.4
20220628213215 32 170 3.2 6.4 0.00 0.00 0.00 34 1014.5
20220628212715 31 148 4.8 12.9 0.00 0.00 0.00 34 1014.5
20220628212215 32 125 4.8 8.0 0.00 0.00 0.00 34 1014.6
20220628211715 31 0.0 1.6 0.00 0.00 0.00 33 1014.6
20220628211215 32 0.0 0.0 0.00 0.00 0.00 33 1014.7
20220628210715 31 0.0 0.0 0.00 0.00 0.00 34 1014.7
20220628210215 31 0.0 0.0 0.00 0.00 0.00 33 1014.7
20220628205715 31 0.0 0.0 0.00 0.00 0.00 32 1014.7
20220628205215 31 0.0 0.0 0.00 0.00 0.00 32 1014.9
20220628204715 31 0.0 0.0 0.00 0.00 0.00 33 1014.9
20220628204215 31 0.0 0.0 0.00 0.00 0.00 32 1014.9
20220628203715 31 0.0 0.0 0.00 0.00 0.00 32 1014.9
20220628203215 31 0.0 0.0 0.00 0.00 0.00 32 1015.0
20220628202715 31 170 3.2 9.7 0.00 0.00 0.00 34 1015.0
20220628202215 31 170 4.8 8.0 0.00 0.00 0.00 35 1015.1
20220628201715 31 283 3.2 6.4 0.00 0.00 0.00 35 1015.1
20220628201215 31 148 1.6 4.8 0.00 0.00 0.00 37 1015.1
20220628200715 30 215 1.6 6.4 0.00 0.00 0.00 37 1015.2
20220628200215 30 125 1.6 3.2 0.00 0.00 0.00 37 1015.2
20220628195717 30 0.0 4.8 0.00 0.00 0.00 39 1015.3
20220628195217 30 0.0 0.0 0.00 0.00 0.00 39 1015.4
20220628194717 30 0.0 1.6 0.00 0.00 0.00 40 1015.4
20220628194217 30 170 4.8 8.0 0.00 0.00 0.00 39 1015.5
20220628193717 30 125 3.2 6.4 0.00 0.00 0.00 33 1015.5
20220628193217 30 103 1.6 8.0 0.00 0.00 0.00 35 1015.6
20220628192717 30 0.0 0.0 0.00 0.00 0.00 36 1015.6
20220628192217 30 0.0 0.0 0.00 0.00 0.00 37 1015.7
20220628191717 30 0.0 0.0 0.00 0.00 0.00 34 1015.7
20220628191217 29 0.0 0.0 0.00 0.00 0.00 39 1015.7
20220628190717 29 0.0 0.0 0.00 0.00 0.00 41 1015.7
20220628190216 29 0.0 0.0 0.00 0.00 0.00 39 1015.7
20220628185717 29 0.0 0.0 0.00 0.00 0.00 39 1015.8
20220628185216 29 0.0 0.0 0.00 0.00 0.00 40 1015.7
20220628184717 29 0.0 0.0 0.00 0.00 0.00 40 1015.9
20220628184217 28 0.0 0.0 0.00 0.00 0.00 39 1015.8
20220628183717 29 0.0 1.6 0.00 0.00 0.00 39 1015.8
20220628183216 29 148 3.2 6.4 0.00 0.00 0.00 39 1015.8
20220628182717 28 193 1.6 4.8 0.00 0.00 0.00 40 1015.8
20220628182216 29 125 3.2 9.7 0.00 0.00 0.00 41 1015.9
20220628181716 29 148 4.8 6.4 0.00 0.00 0.00 45 1015.9
20220628181215 29 215 4.8 9.7 0.00 0.00 0.00 44 1015.8
20220628180717 28 125 1.6 3.2 0.00 0.00 0.00 42 1015.9
20220628180216 28 125 6.4 11.3 0.00 0.00 0.00 42 1015.9
20220628175716 28 125 4.8 6.4 0.00 0.00 0.00 43 1015.9
20220628175217 28 148 1.6 4.8 0.00 0.00 0.00 44 1015.8
20220628174716 28 148 3.2 6.4 0.00 0.00 0.00 46 1015.9
20220628174217 28 103 3.2 6.4 0.00 0.00 0.00 48 1015.9
20220628173716 28 125 6.4 11.3 0.00 0.00 0.00 50 1015.8
20220628173217 28 170 3.2 11.3 0.00 0.00 0.00 50 1015.9
20220628172716 28 0.0 0.0 0.00 0.00 0.00 54 1015.8
20220628172217 28 148 1.6 4.8 0.00 0.00 0.00 53 1015.7
20220628171717 27 170 1.6 3.2 0.00 0.00 0.00 54 1015.8
20220628171217 27 260 1.6 3.2 0.00 0.00 0.00 54 1015.8
20220628170716 27 283 1.6 4.8 0.00 0.00 0.00 55 1015.7
20220628170216 27 0.0 1.6 0.00 0.00 0.00 58 1015.7
20220628165716 26 0.0 1.6 0.00 0.00 0.00 59 1015.7
20220628165216 26 103 3.2 6.4 0.00 0.00 0.00 58 1015.7
20220628164717 26 148 4.8 8.0 0.00 0.00 0.00 58 1015.7
20220628164217 26 305 1.6 3.2 0.00 0.00 0.00 59 1015.8
20220628163717 26 193 1.6 4.8 0.00 0.00 0.00 60 1015.9
20220628163216 26 125 4.8 6.4 0.00 0.00 0.00 60 1015.9
20220628162717 26 103 1.6 3.2 0.00 0.00 0.00 59 1015.9
20220628162216 26 0.0 4.8 0.00 0.00 0.00 60 1015.9
20220628161716 26 0.0 0.0 0.00 0.00 0.00 61 1015.8
20220628161216 26 0.0 3.2 0.00 0.00 0.00 61 1015.8
20220628160717 25 35 1.6 3.2 0.00 0.00 0.00 64 1015.8
20220628160217 25 0.0 1.6 0.00 0.00 0.00 63 1015.9
20220628155716 25 125 3.2 3.2 0.00 0.00 0.00 63 1016.0
20220628155216 25 0.0 1.6 0.00 0.00 0.00 65 1015.9
20220628154716 25 0.0 0.0 0.00 0.00 0.00 65 1015.8
20220628154216 25 0.0 0.0 0.00 0.00 0.00 67 1015.9
20220628153716 24 0.0 1.6 0.00 0.00 0.00 69 1015.9
20220628153216 24 0.0 0.0 0.00 0.00 0.00 70 1015.8
20220628152717 23 0.0 1.6 0.00 0.00 0.00 73 1015.8
20220628152216 23 148 1.6 3.2 0.00 0.00 0.00 76 1015.9
20220628151716 22 0.0 1.6 0.00 0.00 0.00 77 1015.8
20220628151216 22 283 1.6 3.2 0.00 0.00 0.00 76 1015.8
20220628150716 22 0.0 1.6 0.00 0.00 0.00 77 1015.8
20220628150216 22 0.0 0.0 0.00 0.00 0.00 79 1015.7
20220628145716 22 0.0 0.0 0.00 0.00 0.00 82 1015.7
20220628145217 21 0.0 0.0 0.00 0.00 0.00 84 1015.7
20220628144717 21 103 4.8 6.4 0.00 0.00 0.00 84 1015.7
20220628144216 21 125 1.6 3.2 0.00 0.00 0.00 87 1015.6
20220628143716 20 125 1.6 3.2 0.00 0.00 0.00 87 1015.6
20220628143216 20 0.0 0.0 0.00 0.00 0.00 91 1015.5
20220628142716 19 0.0 1.6 0.00 0.00 0.00 92 1015.6
20220628142216 18 0.0 0.0 0.00 0.00 0.00 91 1015.5
20220628141716 18 0.0 0.0 0.00 0.00 0.00 91 1015.5
20220628141216 18 0.0 0.0 0.00 0.00 0.00 92 1015.5
20220628140716 18 0.0 1.6 0.00 0.00 0.00 92 1015.5
20220628140216 17 0.0 1.6 0.00 0.00 0.00 92 1015.4
20220628135716 17 0.0 0.0 0.00 0.00 0.00 92 1015.5
20220628135216 17 0.0 0.0 0.00 0.00 0.00 92 1015.3
20220628134716 17 0.0 0.0 0.00 0.00 0.00 92 1015.2
20220628134216 17 0.0 0.0 0.00 0.00 0.00 92 1015.2
20220628133716 17 0.0 0.0 0.00 0.00 0.00 92 1015.0
20220628133216 17 0.0 0.0 0.00 0.00 0.00 92 1015.0
20220628132716 17 0.0 0.0 0.00 0.00 0.00 92 1015.0
20220628132216 17 0.0 1.6 0.00 0.00 0.00 92 1015.0
20220628131716 17 0.0 0.0 0.00 0.00 0.00 92 1015.0
20220628131216 17 0.0 0.0 0.00 0.00 0.00 92 1015.1
20220628130716 17 0.0 0.0 0.00 0.00 0.00 92 1015.0
20220628130216 17 0.0 0.0 0.00 0.00 0.00 92 1015.0
20220628125716 17 0.0 1.6 0.00 0.00 0.00 92 1015.0
20220628125216 17 260 1.6 1.6 0.00 0.00 0.00 92 1015.0
20220628124716 17 283 1.6 1.6 0.00 0.00 0.00 92 1015.0
20220628124216 17 0.0 1.6 0.00 0.00 0.00 92 1015.1
20220628123716 17 0.0 1.6 0.00 0.00 0.00 92 1015.1
20220628123216 17 260 1.6 3.2 0.00 0.00 0.00 92 1014.9
20220628122716 17 0.0 0.0 0.00 0.00 0.00 91 1015.0
20220628122216 17 0.0 1.6 0.00 0.00 0.00 92 1014.9
20220628121716 17 260 1.6 3.2 0.00 0.00 0.00 91 1014.8
20220628121216 17 283 3.2 4.8 0.00 0.00 0.00 91 1014.7
20220628120716 17 260 1.6 3.2 0.00 0.00 0.00 91 1014.7
20220628120216 17 283 1.6 1.6 0.00 0.00 0.00 91 1014.7
20220628115716 17 283 1.6 3.2 0.00 0.00 0.00 91 1014.8
20220628115216 17 0.0 1.6 0.00 0.00 0.00 91 1014.9
20220628114716 17 0.0 0.0 0.00 0.00 0.00 91 1014.9
20220628114216 17 0.0 1.6 0.00 0.00 0.00 91 1014.8
20220628113716 17 0.0 0.0 0.00 0.00 0.00 91 1014.9
20220628113216 17 0.0 0.0 0.00 0.00 0.00 91 1014.9
20220628112716 17 0.0 0.0 0.00 0.00 0.00 90 1015.0
20220628112216 17 0.0 0.0 0.00 0.00 0.00 90 1014.9
20220628111716 17 0.0 0.0 0.00 0.00 0.00 90 1014.9
20220628111216 17 0.0 0.0 0.00 0.00 0.00 90 1015.0
20220628110716 17 0.0 1.6 0.00 0.00 0.00 90 1015.1
20220628110216 17 283 3.2 3.2 0.00 0.00 0.00 90 1014.9
20220628105716 17 283 1.6 3.2 0.00 0.00 0.00 90 1014.9
20220628105216 17 283 1.6 1.6 0.00 0.00 0.00 90 1014.8
20220628104716 17 283 1.6 3.2 0.00 0.00 0.00 90 1014.9
20220628104216 17 260 1.6 1.6 0.00 0.00 0.00 90 1014.9
20220628103716 17 0.0 0.0 0.00 0.00 0.00 90 1015.1
20220628103216 17 0.0 0.0 0.00 0.00 0.00 90 1015.1
20220628102716 17 0.0 0.0 0.00 0.00 0.00 90 1015.2
20220628102216 17 0.0 0.0 0.00 0.00 0.00 90 1015.0
20220628101716 17 0.0 0.0 0.00 0.00 0.00 89 1015.0
20220628101216 17 0.0 0.0 0.00 0.00 0.00 89 1015.0
20220628100716 17 0.0 0.0 0.00 0.00 0.00 89 1015.0
20220628100216 17 0.0 0.0 0.00 0.00 0.00 89 1015.1
20220628095716 17 0.0 1.6 0.00 0.00 0.00 89 1015.0
20220628095216 17 283 1.6 1.6 0.00 0.00 0.00 89 1015.2
20220628094716 17 260 1.6 3.2 0.00 0.00 0.00 89 1015.1
20220628094216 17 283 3.2 6.4 0.00 0.00 0.00 89 1015.0
20220628093716 17 260 1.6 3.2 0.00 0.00 0.00 89 1015.1
20220628093216 17 283 1.6 1.6 0.00 0.00 0.00 89 1015.1
20220628092716 17 283 1.6 1.6 0.00 0.00 0.00 89 1015.3
20220628092216 17 283 1.6 3.2 0.00 0.00 0.00 89 1015.3
20220628091716 17 260 1.6 1.6 0.00 0.00 0.00 89 1015.2
20220628091215 17 260 1.6 1.6 0.00 0.00 0.00 89 1015.4
20220628090716 18 0.0 0.0 0.00 0.00 0.00 88 1015.3
20220628090216 18 0.0 1.6 0.00 0.00 0.00 88 1015.3
20220628085715 18 0.0 1.6 0.00 0.00 0.00 88 1015.4
20220628085215 18 260 1.6 3.2 0.00 0.00 0.00 88 1015.3
20220628084715 18 260 1.6 1.6 0.00 0.00 0.00 88 1015.4
20220628084215 18 0.0 0.0 0.00 0.00 0.00 88 1015.5
20220628083716 18 0.0 1.6 0.00 0.00 0.00 88 1015.5
20220628083216 18 0.0 0.0 0.00 0.00 0.00 87 1015.4
20220628082716 18 0.0 0.0 0.00 0.00 0.00 87 1015.5
20220628082215 18 0.0 1.6 0.00 0.00 0.00 87 1015.4
20220628081715 18 0.0 0.0 0.00 0.00 0.00 87 1015.5
20220628081216 18 0.0 0.0 0.00 0.00 0.00 87 1015.5
20220628080715 18 0.0 0.0 0.00 0.00 0.00 87 1015.5
20220628080215 18 260 1.6 3.2 0.00 0.00 0.00 86 1015.6
20220628075715 18 0.0 1.6 0.00 0.00 0.00 86 1015.5
20220628075216 18 283 3.2 4.8 0.00 0.00 0.00 86 1015.4
20220628074716 18 283 1.6 1.6 0.00 0.00 0.00 85 1015.3
20220628074216 18 283 1.6 3.2 0.00 0.00 0.00 85 1015.4
20220628073716 18 283 3.2 3.2 0.00 0.00 0.00 85 1015.3
20220628073216 18 283 1.6 1.6 0.00 0.00 0.00 85 1015.5
20220628072716 18 0.0 1.6 0.00 0.00 0.00 85 1015.5
20220628072216 18 350 1.6 1.6 0.00 0.00 0.00 85 1015.6
20220628071716 18 350 1.6 1.6 0.00 0.00 0.00 84 1015.6
20220628071216 18 350 1.6 1.6 0.00 0.00 0.00 84 1015.6
20220628070715 18 0.0 0.0 0.00 0.00 0.00 84 1015.5
20220628070216 19 283 1.6 3.2 0.00 0.00 0.00 84 1015.4
20220628065716 19 283 1.6 3.2 0.00 0.00 0.00 84 1015.4
20220628065216 19 0.0 3.2 0.00 0.00 0.00 84 1015.4
20220628064716 19 260 3.2 4.8 0.00 0.00 0.00 84 1015.4
20220628064216 19 283 1.6 3.2 0.00 0.00 0.00 84 1015.4
20220628063716 19 283 3.2 3.2 0.00 0.00 0.00 84 1015.4
20220628063216 19 283 1.6 3.2 0.00 0.00 0.00 83 1015.5
20220628062716 19 283 1.6 3.2 0.00 0.00 0.00 83 1015.6
20220628062216 19 0.0 1.6 0.00 0.00 0.00 83 1015.6
20220628061716 19 283 1.6 3.2 0.00 0.00 0.00 83 1015.5
20220628061216 19 260 1.6 3.2 0.00 0.00 0.00 83 1015.5
20220628060716 19 283 3.2 4.8 0.00 0.00 0.00 83 1015.5
20220628060216 19 283 3.2 4.8 0.00 0.00 0.00 82 1015.5
20220628055716 20 283 3.2 3.2 0.00 0.00 0.00 82 1015.5
20220628055216 20 0.0 1.6 0.00 0.00 0.00 82 1015.4
20220628054716 20 260 1.6 1.6 0.00 0.00 0.00 82 1015.5
20220628054216 20 260 1.6 1.6 0.00 0.00 0.00 81 1015.4
20220628053716 20 283 3.2 3.2 0.00 0.00 0.00 81 1015.5
20220628053216 20 260 3.2 4.8 0.00 0.00 0.00 81 1015.5
20220628052716 20 260 1.6 3.2 0.00 0.00 0.00 80 1015.6
20220628052216 20 260 1.6 1.6 0.00 0.00 0.00 80 1015.5
20220628051716 20 260 3.2 3.2 0.00 0.00 0.00 80 1015.4
20220628051216 20 0.0 1.6 0.00 0.00 0.00 79 1015.4
20220628050716 20 260 1.6 3.2 0.00 0.00 0.00 79 1015.3
20220628050216 20 260 1.6 3.2 0.00 0.00 0.00 79 1015.2
20220628045715 20 0.0 0.0 0.00 0.00 0.00 78 1015.2
20220628045216 20 305 1.6 1.6 0.00 0.00 0.00 78 1015.2
20220628044716 20 260 1.6 4.8 0.00 0.00 0.00 78 1015.1
20220628044216 20 260 1.6 3.2 0.00 0.00 0.00 78 1015.0
20220628043716 20 283 1.6 3.2 0.00 0.00 0.00 78 1015.0
20220628043216 21 305 3.2 4.8 0.00 0.00 0.00 77 1015.1
20220628042716 21 283 1.6 3.2 0.00 0.00 0.00 77 1015.1
20220628042216 21 328 3.2 3.2 0.00 0.00 0.00 77 1014.9
20220628041716 21 305 1.6 3.2 0.00 0.00 0.00 76 1014.9
20220628041216 21 283 4.8 6.4 0.00 0.00 0.00 76 1014.7
20220628040715 21 283 3.2 3.2 0.00 0.00 0.00 75 1014.7
20220628040216 21 328 3.2 6.4 0.00 0.00 0.00 75 1014.6
20220628035715 21 305 3.2 4.8 0.00 0.00 0.00 75 1014.6
20220628035215 21 283 3.2 6.4 0.00 0.00 0.00 75 1014.6
20220628034716 21 283 1.6 4.8 0.00 0.00 0.00 74 1014.5
20220628034215 21 260 4.8 8.0 0.00 0.00 0.00 74 1014.5
20220628033715 21 283 4.8 8.0 0.00 0.00 0.00 74 1014.5
20220628033215 21 283 4.8 4.8 0.00 0.00 0.00 74 1014.4
20220628032716 21 283 6.4 6.4 0.00 0.00 0.00 73 1014.4
20220628032216 22 283 3.2 6.4 0.00 0.00 0.00 73 1014.5
20220628031715 22 283 4.8 8.0 0.00 0.00 0.00 72 1014.3
20220628031216 22 283 8.0 12.9 0.00 0.00 0.00 70 1014.3
20220628030715 22 305 8.0 11.3 0.00 0.00 0.00 69 1014.3
20220628030216 22 305 6.4 9.7 0.00 0.00 0.00 68 1014.3